Regional Weather Roundup
Issued by NWS Portland, ME

Current Version | Previous Version | Text Only | Print | Product List | Glossary Off
Versions: 1 2 3 4 5 6 7 8 9 10 11 12 13 14 15 16 17 18 19 20 21 22 23 24 25 26 27 28 29 30 31 32 33 34 35 36 37 38 39 40 41 42 43 44 45 46 47 48 49 50
000 ASUS41 KGYX 211210 RWRGYX WEATHER ROUNDUP FOR MAINE AND NEW HAMPSHIRE NATIONAL WEATHER SERVICE GRAY ME 800 AM EDT TUE MAY 21 2019 MEZ002-005-006-010-012-015-018-020-021-024-026-027-029-211300- MAINE CITY SKY/WX TMP DP RH WIND PRES REMARKS PORTLAND FAIR 58 43 57 W14 29.67S 6HR MIN TEMP: 56; 6HR MAX TEMP: 64; SANFORD PTSUNNY 57 39 51 NW25G37 29.71R BAR HARBOR CLOUDY 54 50 86 VRB7 29.59R WISCASSET FAIR 58 43 57 VRB3 29.64F 6HR MIN TEMP: 53; 6HR MAX TEMP: 60; ROCKLAND FAIR 58 44 60 W23G31 29.59F FRYEBURG FAIR 53 37 54 W16G35 29.71S 6HR MIN TEMP: 51; 6HR MAX TEMP: 59; LEWISTONAUBURN FAIR 55 40 56 NW21G32 29.67R AUGUSTA PTSUNNY 56 42 59 W16G26 29.65S 6HR MIN TEMP: 54; 6HR MAX TEMP: 61; WATERVILLE FAIR 55 42 61 NW12G23 29.61S BANGOR PTSUNNY 57 49 74 W7 29.60R 6HR MIN TEMP: 53; 6HR MAX TEMP: 58; GREENVILLE N/A 46 38 73 NW20G36 29.58S 6HR MIN TEMP: 46; 6HR MAX TEMP: 54; MILLINOCKET CLOUDY 52 47 83 W6G20 29.59R 6HR MIN TEMP: 52; 6HR MAX TEMP: 57; HOULTON CLOUDY 51 50 96 CALM 29.52R 6HR MIN TEMP: 50; 6HR MAX TEMP: 51; 6HR PCP: 0.02; PRESQUE ISLE CLOUDY 53 49 86 W12 29.52R 6HR MIN TEMP: 50; 6HR MAX TEMP: 53; 6HR PCP: 0.09; FRENCHVILLE CLOUDY 44 40 85 N8 29.53R FOG 6HR MIN TEMP: 42; 6HR MAX TEMP: 47; 6HR PCP: 0.08; CARIBOU CLOUDY 49 46 90 N7 29.51R 6HR MIN TEMP: 49; 6HR MAX TEMP: 51; 6HR PCP: 0.15; $$ NHZ002-005-008-009-011-012-014-211300- NEW HAMPSHIRE CITY SKY/WX TMP DP RH WIND PRES REMARKS PORTSMOUTH PTSUNNY 58 41 53 W20G28 29.71R ROCHESTER PTSUNNY 56 39 53 NW21G30 29.71R 6HR MIN TEMP: 54; 6HR MAX TEMP: 63; 6HR PCP: TRACE; NASHUA FAIR 58 40 51 NW18G25 29.76R MANCHESTER PTSUNNY 57 37 47 NW22G31 29.75R 6HR MIN TEMP: 57; 6HR MAX TEMP: 63; CONCORD CLOUDY 53 42 66 W15G25 29.76R 6HR MIN TEMP: 52; 6HR MAX TEMP: 60; LACONIA FAIR 53 37 54 NW15G30 29.75R PLYMOUTH PTSUNNY 51 37 57 W17G25 29.76S BERLIN LGT RAIN 47 37 68 W12G22 29.72S 6HR MIN TEMP: 46; 6HR MAX TEMP: 57; 6HR PCP: 0.02; WHITEFIELD LGT RAIN 45 37 73 W15G26 29.76R 6HR MIN TEMP: 46; 6HR MAX TEMP: 56; 6HR PCP: TRACE; JAFFREY PTSUNNY 54 37 52 NW12G26 29.79R 6HR MIN TEMP: 52; 6HR MAX TEMP: 57; KEENE PTSUNNY 54 37 52 W9G20 29.82R LEBANON PTSUNNY 53 37 54 NW10G21 29.79S 6HR MIN TEMP: 50; 6HR MAX TEMP: 57; 6HR PCP: TRACE; MT WASHINGTON SNOWSHWR 25 25 100 W75G86 N/A VSB 1/16WCI 1 6HR MAX TEMP: 33; 6HR PCP: 0.26; $$ VTZ005-007-008-211300- VERMONT CITY SKY/WX TMP DP RH WIND PRES REMARKS ST JOHNSBURY N/A 48 37 65 MISG 29.77R MONTPELIER CLOUDY 46 35 65 W14G22 29.85R BURLINGTON LGT RAIN 47 40 76 W14G23 29.86R $$ MAZ007-012-024-CTZ003-RIZ002-NYZ038-NYZ072-211300- SOUTHERN NEW ENGLAND AND NY CITY SKY/WX TMP DP RH WIND PRES REMARKS BOSTON FAIR 62 41 46 W15G24 29.75R WORCESTER PTSUNNY 51 38 60 W22G33 29.81R NANTUCKET FAIR 59 45 59 NW17G26 29.75R PROVIDENCE FAIR 57 41 55 W22G31 29.81R HARTFORD PTSUNNY 55 39 54 NW17G31 29.88R ALBANY PTSUNNY 53 39 59 W16G24 29.93R NEW YORK CITY FAIR 58 39 49 NW24G31 29.93R $$ ANZ081-ANZ082-ANZ150-NHZ014-MEZ023>029-211300- COASTAL MARINE OBSERVATIONS STATION/POSITION TIME TEMP WIND PRES WAVE AIR SEA DIR/SP/G HT/PER (UTC) (F) (DEG/KT/KT) (MB) (FT/S) ISLE OF SHOALS 1100 56 290/ 23/ 28 1004.2F JEFFREYS LEDGE 1138 48 N/A 3/ 4 CASHES LEDGE BUO 1150 53 47 1003.8R 3/ 6 GEORGES BANK BUO 1150 49 44 250/ 12/ 16 1006.0R 6/ 6 $$ .............KEY.............. WCI - WIND CHILL TC - TEMPERATURE IN CELSIUS VSB - VISIBILITY IN MILES HX - HEAT INDEX FAIR- INDICATES FEW OR NO CLOUDS BELOW 12,000 FT, WITH NO SIGNIFICANT WEATHER AND/OR OBSTRUCTIONS TO VISIBILITY.

USA.gov is the U.S. government's official web portal to all federal, state and local government web resources and services.